Location: Breitenfeld
(46.8500°N, 15.6333°E)
Time: 18:49:57
(UTC+00:00)

STARLINK-1233 - Pass Details

Date: 09 April 2020
Orbit: 549 x 551 km, 53.0° (Epoch: 25 May)

Event Time Altitude Azimuth Distance (km) Brightness Sun altitude
Rises 18:09:45 0° 299° (WNW) 2,734 9.4 -6.0°
Reaches altitude 10° 18:12:00 10° 300° (WNW) 1,838 8.0 -6.4°
Maximum altitude 18:16:11 83° 27° (NNE) 563 3.7 -7.1°
Drops below altitude 10° 18:20:21 10° 117° (ESE) 1,831 5.6 -7.7°
Enters shadow 18:20:25 10° 117° (ESE) 1,852 5.6 -7.8°
